TimeCDT,TemperatureF,Dew PointF,Humidity,Sea Level PressureIn,VisibilityMPH,Wind Direction,Wind SpeedMPH,Gust SpeedMPH,PrecipitationIn,Events,Conditions,WindDirDegrees,DateUTC
12:53 AM,59.0,53.1,81,30.03,10.0,Calm,Calm,-,N/A,,Clear,0,2013-05-07 05:53:00
1:53 AM,61.0,53.1,75,30.01,10.0,Calm,Calm,-,N/A,,Clear,0,2013-05-07 06:53:00
2:53 AM,60.1,52.0,75,30.02,10.0,Calm,Calm,-,N/A,,Clear,0,2013-05-07 07:53:00
3:53 AM,60.1,51.1,72,30.03,10.0,NNW,3.5,-,N/A,,Clear,340,2013-05-07 08:53:00
4:53 AM,59.0,51.1,75,30.03,10.0,Calm,Calm,-,N/A,,Clear,0,2013-05-07 09:53:00
5:53 AM,57.9,51.1,78,30.04,10.0,Calm,Calm,-,N/A,,Clear,0,2013-05-07 10:53:00
6:53 AM,55.9,51.1,84,30.05,10.0,Calm,Calm,-,N/A,,Clear,0,2013-05-07 11:53:00
7:53 AM,61.0,52.0,72,30.07,10.0,Calm,Calm,-,N/A,,Clear,0,2013-05-07 12:53:00
8:53 AM,66.0,54.0,65,30.07,10.0,South,4.6,-,N/A,,Clear,170,2013-05-07 13:53:00
9:53 AM,70.0,55.0,59,30.08,10.0,SSW,3.5,-,N/A,,Clear,210,2013-05-07 14:53:00
10:53 AM,75.0,52.0,44,30.08,10.0,West,5.8,-,N/A,,Clear,260,2013-05-07 15:53:00
11:53 AM,75.9,50.0,40,30.07,10.0,Calm,Calm,-,N/A,,Clear,0,2013-05-07 16:53:00
12:53 PM,78.1,48.9,36,30.06,10.0,Variable,3.5,-,N/A,,Clear,0,2013-05-07 17:53:00
1:53 PM,81.0,48.0,31,30.04,10.0,Variable,3.5,-,N/A,,Clear,0,2013-05-07 18:53:00
2:53 PM,81.0,46.0,29,30.01,10.0,Calm,Calm,-,N/A,,Clear,0,2013-05-07 19:53:00
3:53 PM,82.9,48.0,29,29.99,10.0,Variable,5.8,-,N/A,,Clear,0,2013-05-07 20:53:00
4:53 PM,82.0,48.0,30,29.97,10.0,Variable,3.5,-,N/A,,Clear,0,2013-05-07 21:53:00
5:53 PM,82.0,48.0,30,29.96,10.0,South,4.6,-,N/A,,Clear,170,2013-05-07 22:53:00
6:53 PM,81.0,44.1,27,29.96,10.0,South,5.8,-,N/A,,Clear,170,2013-05-07 23:53:00
7:53 PM,77.0,50.0,39,29.96,10.0,SSE,3.5,-,N/A,,Clear,150,2013-05-08 00:53:00
8:53 PM,73.0,51.1,46,29.98,10.0,ESE,4.6,-,N/A,,Clear,110,2013-05-08 01:53:00
9:53 PM,70.0,51.1,51,29.99,10.0,ESE,6.9,-,N/A,,Clear,120,2013-05-08 02:53:00
10:53 PM,69.1,50.0,51,29.99,10.0,ESE,6.9,-,N/A,,Clear,120,2013-05-08 03:53:00
11:53 PM,69.1,51.1,53,29.99,10.0,ESE,8.1,-,N/A,,Clear,120,2013-05-08 04:53:00